User: anonymous   Login
Location: *
(17.3280°S, 114.7300°W)
Time: 08:31:41
(UTC+00:00)
Language:

CZ-4B R/B - Orbit

View from above orbital plane
View from above orbital plane
View from above satellite
View from above satellite

Ground track
Ground track

The orbit data is extracted from the following two-line orbital elements,

1 29093U 06015B   20293.79548523 +.00004483 +00000-0 +87383-4 0  9996
2 29093 097.6303 106.8345 0051529 230.3850 129.2845 15.46669893805802
Epoch (UTC): 19 October 2020 19:05:29
Eccentricity: 0.0051529
inclination: 97.6303°
perigee height: 391 km
apogee height: 461 km
right ascension of ascending node: 106.8345°
argument of perigee: 230.3850°
revolutions per day: 15.46669893
mean anomaly at epoch: 129.2845°
orbit number at epoch: 80580

The dashed part of the orbit path shows where the satellite is in the earth's shadow,  

DLR